カタログに戻る

COSMOS 1275 DEB

運用中PO
NORAD 19026·DEBRIS·🇷🇺 Russia

打ち上げ Jun 4, 1981 から Plesetsk Cosmodrome

Loading…

次のパス (今後24時間)

TLE

最新Source: Space-Track

元期: Sep 12, 2026, 22:57 UTC

1 19026U 81053MD  26255.95669270  .00000967  00000-0  88476-3 0  9997
2 19026  83.1619  77.5452 0112510 209.0028 305.5681 13.79340418 63602

AllMySatでCOSMOS 1275 DEBをリアルタイム追跡

Download on the App Store